Torna al catalogo

STARLINK-36068

AttivoComunicazioniVLEO
NORAD 66845·PAYLOAD·🇺🇸 United States

Lanciato Dec 2, 2025 da Vandenberg Space Force Base

Loading…

Prossimi Passaggi (prossime 24 ore)

TLE

AggiornatoSource: CelesTrak SupGP

Epoca: Sep 14, 2026, 22:27 UTC

1 66845C 25280AA  26257.93590278 -.00037297  00000+0 -31268-2 0  2579
2 66845  70.0013 217.1560 0003185 256.0304 208.6414 14.98334159    14

Traccia STARLINK-36068 in tempo reale con AllMySat

Download on the App Store